This demonstration page uses our WeatherBlox Daily Observations layout. Learn more.

40.92945, -100.16068

Hourly Observations for May 20, 2018

Temp ( °F °C ) Dew Point ( °F °C ) Humidity (%) Winds ( mph kmh ) Pressure ( in mb ) Visibility ( mi km ) Precip ( " mm )
12:15 am 00:15 Cloudy 51 10.8 50 10 95 95 N 6 9 30.12 1020 10 16.0934 0 0
12:35 am 00:35 Cloudy 51 10.8 50 10.1 95 95 N 5 7 30.12 1020 7 11.26538 0 0
12:55 am 00:55 Cloudy with Light Drizzle 51 10.7 50 10.1 96 96 NNW 7 11 30.12 1020 3 4.82802 0 0
1:15 am 01:15 Cloudy with Mist and Fog 51 10.7 50 10.1 96 96 NNW 7 11 30.12 1020 5 8.0467 0 0
1:35 am 01:35 Cloudy with Mist and Fog 51 10.7 50 10.1 96 96 NNW 7 11 30.12 1020 4 6.43736 0 0
1:55 am 01:55 Cloudy with Mist and Fog 51 10.7 50 10.1 96 96 NNW 9 15 30.12 1020 2 3.21868 0 0
2:15 am 02:15 Cloudy with Mist and Fog 52 11 51 10.5 97 97 N 8 13 30.09 1019 2.5 4.02335 0.01 0.254
2:35 am 02:35 Cloudy with Light Drizzle 52 11 51 10.5 97 97 N 14 22 30.09 1019 5 8.0467 0.01 0.254
2:55 am 02:55 Cloudy 52 11 50 10.2 95 95 N 12 19 30.09 1019 7 11.26538 0.01 0.254
3:15 am 03:15 Cloudy 52 11.1 50 10 93 93 N 8 13 30.09 1019 10 16.0934 0 0
3:35 am 03:35 Cloudy 52 11.1 49 9.7 91 91 N 9 15 30.09 1019 10 16.0934 0 0
3:55 am 03:55 Cloudy 51 10.8 48 8.9 88 88 NNW 12 19 30.06 1018 10 16.0934 0 0
4:15 am 04:15 Cloudy 51 10.5 47 8.6 88 88 N 13 20 30.09 1019 10 16.0934 0 0
4:35 am 04:35 Cloudy 51 10.6 47 8.6 88 88 NNE 10 17 30.12 1020 10 16.0934 0 0
4:55 am 04:55 Cloudy 51 10.6 47 8.5 87 87 N 13 20 30.12 1020 10 16.0934 0 0
5:15 am 05:15 Cloudy 51 10.5 47 8.5 88 88 N 12 19 30.12 1020 10 16.0934 0 0
5:35 am 05:35 Cloudy 51 10.3 47 8.5 89 89 N 12 19 30.15 1021 10 16.0934 0 0
5:55 am 05:55 Cloudy 51 10.5 47 8.5 88 88 N 12 19 30.15 1021 10 16.0934 0 0
6:15 am 06:15 Cloudy 51 10.3 47 8.5 89 89 N 7 11 30.15 1021 10 16.0934 0 0
6:35 am 06:35 Cloudy 51 10.3 47 8.5 89 89 N 8 13 30.15 1021 10 16.0934 0 0
6:55 am 06:55 Cloudy 50 10.2 47 8.3 88 88 N 12 19 30.15 1021 10 16.0934 0 0
7:15 am 07:15 Cloudy 50 10.2 47 8.3 88 88 N 8 13 30.15 1021 10 16.0934 0 0
7:35 am 07:35 Cloudy 50 10.1 47 8.2 88 88 N 12 19 30.15 1021 10 16.0934 0 0
7:55 am 07:55 Cloudy 50 10.1 47 8.6 91 91 N 10 17 30.18 1022 10 16.0934 0 0
8:15 am 08:15 Cloudy 50 10.1 48 8.7 91 91 N 9 15 30.18 1022 10 16.0934 0 0
8:35 am 08:35 Cloudy 50 10.2 48 9 92 92 N 10 17 30.18 1022 10 16.0934 0 0
8:55 am 08:55 Cloudy 51 10.3 48 9 92 92 N 9 15 30.18 1022 10 16.0934 0 0
9:15 am 09:15 Cloudy 51 10.5 49 9.2 92 92 N 9 15 30.18 1022 10 16.0934 0 0
9:35 am 09:35 Cloudy 51 10.7 49 9.4 92 92 N 9 15 30.18 1022 10 16.0934 0 0
9:55 am 09:55 Cloudy 51 10.8 49 9.5 92 92 N 12 19 30.18 1022 10 16.0934 0 0
10:15 am 10:15 Cloudy with Mist and Fog 52 11 50 9.8 92 92 N 10 17 30.18 1022 4 6.43736 0 0
10:35 am 10:35 Cloudy with Mist and Fog 52 11 50 10 94 94 N 9 15 30.18 1022 5 8.0467 0 0
10:55 am 10:55 Cloudy with Mist and Fog 53 11.5 51 10.5 94 94 N 8 13 30.15 1021 4 6.43736 0 0
11:15 am 11:15 Cloudy 54 12 51 10.7 92 92 N 13 20 30.15 1021 7 11.26538 0 0
11:35 am 11:35 Cloudy 54 12.3 51 10.4 88 88 N 9 15 30.18 1022 10 16.0934 0 0
11:55 am 11:55 Cloudy 55 12.8 51 10.6 87 87 N 9 15 30.15 1021 10 16.0934 0 0
12:15 pm 12:15 Cloudy 57 13.8 51 10.7 82 82 N 12 19 30.15 1021 10 16.0934 0 0
12:35 pm 12:35 Cloudy 58 14.7 51 10.5 76 76 N 12 19 30.12 1020 10 16.0934 0 0
12:55 pm 12:55 Cloudy 58 14.3 50 9.9 75 75 N 13 20 30.15 1021 10 16.0934 0 0
1:15 pm 13:15 Cloudy 58 14.5 50 10.1 75 75 N 12 19 30.15 1021 10 16.0934 0 0
1:35 pm 13:35 Cloudy 58 14.4 50 10.1 76 76 NNE 10 17 30.15 1021 10 16.0934 0 0
1:55 pm 13:55 Cloudy 58 14.2 50 10.2 77 77 NNE 10 17 30.15 1021 10 16.0934 0 0
2:15 pm 14:15 Cloudy 57 14.1 50 10.1 77 77 NNE 8 13 30.12 1020 10 16.0934 0 0
2:35 pm 14:35 Cloudy 57 14 51 10.4 79 79 NNE 12 19 30.12 1020 10 16.0934 0 0
2:55 pm 14:55 Cloudy 58 14.7 51 10.7 77 77 NNE 8 13 30.09 1019 10 16.0934 0 0
3:15 pm 15:15 Cloudy 59 15 52 11.1 78 78 ENE 9 15 30.09 1019 10 16.0934 0 0
3:35 pm 15:35 Cloudy 58 14.5 51 10.5 77 77 NNE 8 13 30.09 1019 10 16.0934 0 0
3:55 pm 15:55 Cloudy 58 14.5 52 10.9 79 79 ENE 9 15 30.06 1018 10 16.0934 0 0
4:15 pm 16:15 Cloudy 58 14.5 52 11.1 80 80 ENE 8 13 30.06 1018 10 16.0934 0 0
4:35 pm 16:35 Cloudy 59 15.1 53 11.5 79 79 NE 6 9 30.06 1018 10 16.0934 0 0
4:55 pm 16:55 Cloudy 58 14.5 52 11.1 80 80 ENE 3 6 30.06 1018 10 16.0934 0 0
5:15 pm 17:15 Cloudy 59 14.8 52 11 78 78 NE 7 11 30.06 1018 10 16.0934 0 0
5:35 pm 17:35 Cloudy 58 14.5 52 11.1 80 80 E 7 11 30.06 1018 10 16.0934 0 0
5:55 pm 17:55 Cloudy 58 14.5 52 11.1 80 80 E 6 9 30.06 1018 10 16.0934 0 0
6:15 pm 18:15 Cloudy 58 14.6 51 10.7 78 78 E 7 11 30.06 1018 10 16.0934 0 0
6:35 pm 18:35 Cloudy 58 14.5 51 10.7 78 78 E 7 11 30.06 1018 10 16.0934 0 0
6:55 pm 18:55 Cloudy 58 14.5 52 10.9 79 79 E 7 11 30.06 1018 10 16.0934 0 0
7:15 pm 19:15 Cloudy 58 14.5 51 10.6 78 78 E 7 11 30.06 1018 10 16.0934 0 0
7:35 pm 19:35 Cloudy 57 14.1 52 11 82 82 E 7 11 30.06 1018 10 16.0934 0 0
7:55 pm 19:55 Partly Cloudy 57 13.7 52 11 84 84 ESE 6 9 30.09 1019 10 16.0934 0 0
8:15 pm 20:15 Sunny 55 13 51 10.8 87 87 ESE 5 7 30.09 1019 10 16.0934 0 0
8:35 pm 20:35 Sunny 55 12.6 51 10.6 88 88 ESE 3 6 30.09 1019 10 16.0934 0 0
8:55 pm 20:55 Partly Cloudy 54 12.2 51 10.6 90 90 SE 3 6 30.09 1019 10 16.0934 0 0
9:15 pm 21:15 Partly Cloudy 54 12.1 51 10.4 89 89 SSE 3 6 30.09 1019 10 16.0934 0 0
9:35 pm 21:35 Partly Cloudy 52 11 49 9.7 92 92 SSE 3 6 30.09 1019 10 16.0934 0 0
9:55 pm 21:55 Partly Cloudy 53 11.6 51 10.5 93 93 Calm 30.09 1019 10 16.0934 0 0
10:15 pm 22:15 Clear 51 10.3 48 8.9 91 91 Calm 30.15 1021 7 11.26538 0 0
10:35 pm 22:35 Clear 51 10.6 50 9.9 95 95 Calm 30.15 1021 7 11.26538 0 0
10:55 pm 22:55 Clear with Mist and Fog 51 10.5 49 9.7 95 95 Calm 30.12 1020 5 8.0467 0 0
11:15 pm 23:15 Clear with Mist and Fog 50 10.1 49 9.4 95 95 Calm 30.12 1020 5 8.0467 0 0
11:35 pm 23:35 Mostly Cloudy with Fog 50 9.8 49 9.2 96 96 Calm 30.12 1020 0.5 0.80467 0 0
11:55 pm 23:55 Mostly Cloudy with Fog 49 9.5 48 8.9 96 96 Calm 30.12 1020 0.25 0.402335 0 0

Powered by AerisWeather